Regional Weather Roundup
Issued by NWS Upton, NY

Current Version | Previous Version | Text Only | Print | Product List | Glossary On
Versions: 1 2 3 4 5 6 7 8 9 10 11 12 13 14 15 16 17 18 19 20 21 22 23 24 25 26 27 28 29 30
000
ASUS41 KOKX 171408
RWROKX

Regional Weather Roundup
National Weather Service New York NY
900 AM EST SUN DEC 17 2017

Note: "FAIR" indicates few or no clouds below 12,000 feet with no
significant weather and/or obstructions to visibility.

NYZ071-072-176-178-NJZ106-104-171500-
New York City Metro Area

CITY           SKY/WX    TMP DP  RH WIND       PRES   REMARKS
Central Park   CLOUDY    33  21  61 VRB3      30.31R
Bronx Bot Gard   N/A     32  21  64 CALM      30.30R
Bronx Lehman C   N/A     32  21  64 N1          N/A
LaGuardia Arpt CLOUDY    34  21  59 NE5       30.29S WCI  30
Queens College   N/A     34  21  60 NE3         N/A
Kennedy Intl   PTSUNNY   33  24  69 E5        30.31R WCI  29
Breezy Point     N/A     34 N/A N/A N3          N/A
Brooklyn Coll    N/A     34  23  64 E1          N/A
Staten Island    N/A     32  23  69 NE3         N/A
Newark/Liberty CLOUDY    34  22  61 CALM      30.30R
Teterboro      CLOUDY    33  20  58 VRB5      30.29R WCI  29
$$

NYZ177-179-078>081-171500-
Long Island New York

CITY           SKY/WX    TMP DP  RH WIND       PRES   REMARKS
Jones Beach      N/A     32 N/A N/A E3          N/A
Wantagh          N/A     32  21  64 E2          N/A
Matinecock Pt    N/A     32 N/A N/A E6          N/A  WCI  26
Farmingdale    CLOUDY    31  21  66 CALM      30.30R
MacArthur/ISP  CLOUDY    30  20  66 N7        30.29S WCI  23
Shirley        CLOUDY    30  20  66 N3        30.30S
Mt Sinai Harb    N/A    N/A N/A N/A N6          N/A
Westhampton    SUNNY     30  17  58 VRB6      30.31R WCI  24
East Hampton   FAIR      28  16  60 N9        30.29R WCI  20
Southold         N/A     30  19  64 N8          N/A  WCI  23
Montauk          N/A     32  16  51 N12       30.29R WCI  23
$$

NYZ052-065-067-171500-
Hudson Valley

CITY           SKY/WX    TMP DP  RH WIND       PRES   REMARKS
White Plains   CLOUDY    29  20  69 CALM      30.27R
Larchmont Harb   N/A    N/A N/A N/A N5          N/A
Croton On Huds   N/A    N/A N/A N/A MISG        N/A
Somers           N/A     27  18  69 E2          N/A
Brewster         N/A     23  14  68 N3          N/A
Newburgh       PTSUNNY   25  18  74 VRB5      30.28S WCI  19
Montgomery     CLOUDY    28  18  66 CALM      30.27S
Otisville        N/A     27  18  69 S1          N/A
Warwick          N/A     28  19  69 N2          N/A
Suffern          N/A     30  19  64 NW5         N/A  WCI  25
Poughkeepsie   CLOUDY    19  13  77 CALM      30.30S
Albany         CLOUDY    15   8  73 CALM      30.32R
$$

NJZ001-105-106-008-010-013-015-019>022-104-171500-
New Jersey

CITY           SKY/WX    TMP DP  RH WIND       PRES   REMARKS
Newark/Liberty CLOUDY    34  22  61 CALM      30.30R
Teterboro      CLOUDY    33  20  58 VRB5      30.29R WCI  29
Caldwell       PTSUNNY   31  20  63 CALM      30.30R
Somerville     PTSUNNY   31  26  82 CALM      30.27S
Linden         CLOUDY    33  21  61 CALM      30.30R
Perth Amboy      N/A     32 N/A N/A NE6         N/A  WCI  26
Sussex         CLOUDY    29  20  69 CALM      30.27R
Andover        NOT AVBL
Trenton        CLOUDY    32  24  72 CALM      30.28R
Millville      MOSUNNY   34  31  88 CALM      30.28R
Atlantic City  CLOUDY    36  31  82 CALM      30.27S
Wrightstown    PTSUNNY   32  26  79 CALM      30.25R
Toms River     MOSUNNY   33  27  78 CALM      30.29R
Belmar         CLOUDY    33  25  72 N5        30.28S WCI  29
$$

PAZ047>061-062-071-171500-
Eastern Pennsylvania

CITY           SKY/WX    TMP DP  RH WIND       PRES   REMARKS
Philadelphia   PTSUNNY   35  26  69 E6        30.29R WCI  30
Allentown      CLOUDY    31  22  69 NE3       30.27S
Scranton       CLOUDY    27  21  78 CALM      30.24S
$$

CTZ002-004>006-009-010-012-RIZ004-006-007-MAZ004-011-015-171500-
Southern New England

 In CT

CITY           SKY/WX    TMP DP  RH WIND       PRES   REMARKS
Bradley Intl   CLOUDY    21  10  62 CALM      30.30R
Hartford       CLOUDY    22  11  62 N5        30.31R WCI  16
Danbury        CLOUDY    23  16  74 CALM      30.29R
Wtrbury/Oxford CLOUDY    19  13  77 N8        30.25R WCI   9
Norwalk Harbor   N/A    N/A N/A N/A N7          N/A
Bridgeport     SUNNY     27  14  58 CALM      30.30S
Meriden        CLOUDY    20  15  81 N3        30.29S
New Haven      SUNNY     24  16  71 N3        30.29S
Chester        FAIR      25  10  54 N8        30.27R WCI  16
Groton         SUNNY     27  10  49 N9        30.28S WCI  18
Willimantic    CLOUDY    14   8  77 NE3       30.29S

 In RI

CITY           SKY/WX    TMP DP  RH WIND       PRES   REMARKS
Providence     SUNNY     22  12  65 CALM      30.29R
Block Island   SUNNY     27  13  55 N13G20    30.27S WCI  16
Westerly       SUNNY     26   8  46 NW9       30.28S WCI  17

In MA

CITY           SKY/WX    TMP DP  RH WIND       PRES   REMARKS
Boston         MOSUNNY   22   6  50 W12       30.28R WCI  10
Worcester      CLOUDY    17   4  56 W14       30.20S WCI   3
Westfield      CLOUDY    13  11  92 S5        30.29R WCI   5
Provincetown   SUNNY     27  14  58 NW16      30.26R WCI  15
Nantucket      SUNNY     27  13  55 NW14      30.25S WCI  16
$$

ANZ330-335-338-340-345-350-353-355-171500-
Coastal Marine Observations


STATION/POSITION TIME  SKY/WX   TEMP    WIND        PRES    VSBY  WAVE
                                AIR SEA DIR/SP/G                  HT/PER
                 (UTC)          (F)     (DEG/KT/KT) (MB)    (MI)  (FT/S)
NY Harb Entrance 1250            37 50   20/  6/ 10 1025.0          2/ 6
20 S Fire Island 1250            36 50   30/  6/  8 1025.4          3/ 6
15 E Barnegat Li 1330               49                N/A           2/ 6
Hudson Canyon    1250            42 54   30/  6/ 10 1024.4          4/ 6
Kings Point      1336            33 42   30/  4/  5 1026.5
Execution Rocks  1330            33      10/  4/  6   N/A
Western LI Sound NOT AVBL
Central LI Sound 1330            28      20/ 12/ 14   N/A           1
Robbins Reef     1348            33     330/  4/  5 1026.4
$$


>>>>>>>>>>>>>>>>>>>>>>>>>>>> KEY <<<<<<<<<<<<<<<<<<<<<<<<<<<
>                                                          <
>     SKY/WX - Sky Condition/Present Weather               <
>     TMP    - Temperature in Fahrenheit                   <
>     DP     - Dew Point in Fahrenheit                     <
>     RH     - Relative Humidity in Percent                <
>     WIND   - Direction (from) and Speed in MPH           <
>     PRES   - Mean Sea Level Pressure (inches of Hg)      <
>     WCI    - Wind Chill Index                            <
>     VSB    - Visibility in Miles                         <
>     HX     - Heat Index                                  <
>     TC     - Temperature in Celsius                      <
>     VRB    - Varibale Wind Direction                     <
>                                                          <
>>>>>>>>>>>>>>>>>>>>>>>>>>>> KEY <<<<<<<<<<<<<<<<<<<<<<<<<<<




USA.gov is the U.S. government's official web portal to all federal, state and local government web resources and services.